Location: Dittelbrunn
(50.0738°N, 10.2196°E)
Time: 21:48:34
(UTC+00:00)

Cosmos 2266 Rocket - Pass Details

Date: 18 September 2020
Orbit: 934 x 1008 km, 82.9° (Epoch: 20 October)

Event Time Altitude Azimuth Distance (km) Brightness Sun altitude
Rises 20:57:48 0° 349° (N) 3,618 7.8 -30.9°
Reaches altitude 10° 21:00:18 10° 350° (N) 2,664 7.0 -31.2°
Enters shadow 21:05:35 69° 341° (NNW) 1,000 4.1 -31.7°
